Hourly Data Report for December 03, 2017

All times are specified in Local Standard Time (LST). Add 1 hour to adjust for Daylight Saving Time where and when it is observed.

LA RONGE A
SASKATCHEWAN

55°09'05.000" N
105°16'01.000" W
379.20 m
4064155
71922
YVC

Download Data

Hourly Data (December 2017)
Hourly Data Report for December 3, 2017
Temp Definition
°C
Dew Point Temp Definition
°C
Rel Hum Definition
%
Wind Dir Definition
10's deg

Wind Spd Definition
km/h
Visibility Definition
km
Stn Press Definition
kPa
Hmdx Definition


Wind Chill Definition


Weather Definition


TIME
00:00 Legend Double Dagger -7.0 -8.1 92 24 6 24.1 96.50   -10 Cloudy
01:00 Legend Double Dagger -8.1 -9.3 91 36 1 24.1 96.45   -9 LegendNANA
02:00 Legend Double Dagger -8.1 -9.2 92 17 4 24.1 96.44   -10 LegendNANA
03:00 Legend Double Dagger -8.1 -9.3 91 14 8 24.1 96.45   -12 Cloudy
04:00 Legend Double Dagger -8.2 -9.2 92 21 4 24.1 96.50   -10 LegendNANA
05:00 Legend Double Dagger -8.8 -9.9 91 17 11 24.1 96.46   -14 LegendNANA
06:00 Legend Double Dagger -8.7 -10.0 90 18 8 24.1 96.42   -13 Cloudy
07:00 Legend Double Dagger -8.9 -10.0 92 19 5 24.1 96.43   -12 LegendNANA
08:00 Legend Double Dagger -9.8 -10.9 92 18 8 24.1 96.41   -14 LegendNANA
09:00 Legend Double Dagger -10.9 -12.1 91 19 9 24.1 96.41   -16 Mainly Clear
10:00 Legend Double Dagger -11.3 -12.6 90 18 9 24.1 96.41   -16 LegendNANA
11:00 Legend Double Dagger -10.9 -12.3 90 18 9 24.1 96.41   -16 LegendNANA
12:00 Legend Double Dagger -9.6 -11.0 90 18 7 24.1 96.38   -14 Mostly Cloudy
13:00 Legend Double Dagger -9.0 -10.5 89 17 7 24.1 96.36   -13 LegendNANA
14:00 Legend Double Dagger -8.4 -10.0 88 16 9 6.4 96.30   -13 Snow
15:00 Legend Double Dagger -7.4 -8.9 89 16 11 16.1 96.28   -12 Snow
16:00 Legend Double Dagger -7.3 -8.6 90 16 8 9.7 96.27   -11 Snow
17:00 Legend Double Dagger -7.3 -8.4 91 29 7 6.4 96.30   -11 Snow
18:00 Legend Double Dagger -5.3 -7.1 87 27 26 6.4 96.37   -13 Snow,Blowing Snow
19:00 Legend Double Dagger -5.9 -8.2 84 28 25 19.3 96.43   -13 Snow,Blowing Snow
20:00 Legend Double Dagger -6.0 -8.8 81 28 23 19.3 96.48   -13 Snow,Blowing Snow
21:00 Legend Double Dagger -8.3 -11.1 80 28 26 19.3 96.60   -17 Snow,Blowing Snow
22:00 Legend Double Dagger -9.7 -12.7 79 30 22 12.9 96.69   -18 Snow,Blowing Snow
23:00 Legend Double Dagger -10.4 -13.5 78 30 17 12.9 96.76   -18 Snow,Blowing Snow

Notes on Data Quality.

Legend

  • E = Estimated
  • M = Missing
  • NA = Not Available
  • ‡ = Partner data that is not subject to review by the National Climate Archives
Date modified: